Weather History for Soldotna, AK

Change the Weather History Date:

Thursday, August 29, 2013

  Actual Average Record
Temperature  
Mean Temperature 53 °F -  
Max Temperature 55 °F 58 °F 68 °F (2007)
Min Temperature 51 °F 44 °F 24 °F (1984)
Degree Days  
Heating Degree Days 12    
Growing Degree Days 3 (Base 50)    
Moisture  
Dew Point 50 °F    
Average Humidity 90    
Maximum Humidity 94    
Minimum Humidity 82    
Precipitation  
Precipitation 0.04 in - - ()
Sea Level Pressure  
Sea Level Pressure 29.65 in    
Wind  
Wind Speed 7 mph (NE)    
Max Wind Speed 14 mph    
Max Gust Speed 21 mph    
Visibility 10 miles    
Events      
Averages and records for this station are not official NWS values.
T = Trace of Precipitation, MM = Missing Value Source: NWS Daily Summary

Daily Weather History Graph

Daily Weather History Graph

Search for Another Location

Airport:

Trip Planner

Search our weather history database for the weather conditions in past years. The results will help you decide how hot, cold, wet, or windy it might be!

Date:

Astronomy

Aug. 29, 2013 Rise Set
Actual Time 6:51 AM AKDT 9:16 PM AKDT
Civil Twilight 6:05 AM AKDT 10:02 PM AKDT
Nautical Twilight 5:03 AM AKDT 11:03 PM AKDT
Astronomical Twilight 3:36 AM AKDT 12:27 AM AKDT
Moon No Moon Rise 5:46 PM AKDT (8/29)
Length of Visible Light 15h 57m
Length of Day
14h 24m
Last Quarter, 36% of the Moon is Illuminated
Aug 29
Last Quarter
Sep 5
New
Sep 12
First Quarter
Sep 19
Full
Sep 26
Last Quarter

Hourly Weather History & Observations

Time (AKDT) Temp. Dew Point Humidity Pressure Visibility Wind Dir Wind Speed Gust Speed Precip Events Conditions
12:16 AM 53.6 °F 50.0 °F 88% 29.52 in 10.0 mi ENE 5.8 mph - N/A   Mostly Cloudy
12:36 AM 53.6 °F 50.0 °F 88% 29.52 in 10.0 mi ENE 8.1 mph - N/A   Overcast
12:56 AM 53.6 °F 50.0 °F 88% 29.52 in 10.0 mi NE 9.2 mph - N/A   Overcast
1:16 AM 53.6 °F 50.0 °F 88% 29.51 in 10.0 mi NE 8.1 mph - N/A   Overcast
1:36 AM 53.6 °F 48.2 °F 82% 29.51 in 10.0 mi NE 6.9 mph - 0.01 in   Overcast
1:56 AM 51.8 °F 48.2 °F 88% 29.50 in 10.0 mi NE 8.1 mph - 0.01 in   Overcast
2:16 AM 51.8 °F 48.2 °F 88% 29.50 in 10.0 mi NE 5.8 mph - 0.01 in   Overcast
2:36 AM 51.8 °F 48.2 °F 88% 29.50 in 10.0 mi NE 8.1 mph - 0.01 in   Overcast
2:56 AM 51.8 °F 48.2 °F 88% 29.50 in 10.0 mi NE 8.1 mph - 0.01 in   Overcast
3:16 AM 51.8 °F 48.2 °F 88% 29.50 in 10.0 mi NE 8.1 mph - N/A   Overcast
3:36 AM 51.8 °F 48.2 °F 88% 29.50 in 10.0 mi NE 8.1 mph - N/A   Overcast
3:56 AM 51.8 °F 48.2 °F 88% 29.50 in 10.0 mi NE 8.1 mph - N/A   Overcast
4:16 AM 51.8 °F 48.2 °F 88% 29.50 in 10.0 mi NE 9.2 mph - N/A   Overcast
4:36 AM 51.8 °F 48.2 °F 88% 29.50 in 10.0 mi NE 8.1 mph - N/A   Overcast
4:56 AM 51.8 °F 48.2 °F 88% 29.50 in 10.0 mi NE 9.2 mph - N/A   Overcast
5:16 AM 51.8 °F 48.2 °F 88% 29.50 in 10.0 mi NE 5.8 mph - N/A   Overcast
5:36 AM 51.8 °F 48.2 °F 88% 29.50 in 10.0 mi NE 8.1 mph - N/A   Overcast
5:56 AM 51.8 °F 48.2 °F 88% 29.51 in 10.0 mi NNE 6.9 mph - 0.01 in   Overcast
6:16 AM 51.8 °F 48.2 °F 88% 29.51 in 10.0 mi NNE 8.1 mph - N/A   Overcast
6:36 AM 51.8 °F 48.2 °F 88% 29.51 in 10.0 mi NE 9.2 mph 16.1 mph N/A   Overcast
6:56 AM 51.8 °F 48.2 °F 88% 29.52 in 10.0 mi NE 8.1 mph - N/A   Overcast
7:16 AM 51.8 °F 48.2 °F 88% 29.52 in 10.0 mi NNE 8.1 mph - 0.01 in   Overcast
7:36 AM 51.8 °F 48.2 °F 88% 29.53 in 10.0 mi NE 9.2 mph - 0.01 in   Overcast
7:56 AM 51.8 °F 48.2 °F 88% 29.54 in 10.0 mi NNE 8.1 mph - 0.01 in   Overcast
8:16 AM 51.8 °F 48.2 °F 88% 29.55 in 10.0 mi NE 10.4 mph - N/A   Overcast
8:36 AM 51.8 °F 48.2 °F 88% 29.55 in 10.0 mi NE 8.1 mph - N/A   Overcast
8:56 AM 51.8 °F 48.2 °F 88% 29.56 in 10.0 mi NE 6.9 mph - N/A   Overcast
9:16 AM 51.8 °F 48.2 °F 88% 29.57 in 10.0 mi NE 8.1 mph - N/A   Overcast
9:36 AM 51.8 °F 48.2 °F 88% 29.57 in 10.0 mi NE 10.4 mph 17.3 mph N/A   Overcast
9:56 AM 51.8 °F 48.2 °F 88% 29.57 in 10.0 mi NE 12.7 mph 18.4 mph N/A   Overcast
10:16 AM 51.8 °F 48.2 °F 88% 29.59 in 10.0 mi NE 10.4 mph 16.1 mph N/A   Mostly Cloudy
10:36 AM 51.8 °F 48.2 °F 88% 29.60 in 10.0 mi ENE 12.7 mph 18.4 mph N/A   Overcast
10:56 AM 51.8 °F 48.2 °F 88% 29.61 in 10.0 mi NE 8.1 mph 20.7 mph N/A   Overcast
11:16 AM 51.8 °F 48.2 °F 88% 29.62 in 10.0 mi NE 13.8 mph 18.4 mph N/A   Overcast
11:36 AM 51.8 °F 48.2 °F 88% 29.62 in 10.0 mi NE 10.4 mph 18.4 mph N/A   Overcast
11:56 AM 53.6 °F 48.2 °F 82% 29.63 in 10.0 mi NE 9.2 mph - N/A   Overcast
12:16 PM 53.6 °F 48.2 °F 82% 29.64 in 10.0 mi NE 10.4 mph 16.1 mph N/A   Overcast
12:36 PM 53.6 °F 50.0 °F 88% 29.65 in 10.0 mi NNE 10.4 mph - N/A   Overcast
12:56 PM 53.6 °F 48.2 °F 82% 29.66 in 10.0 mi NE 8.1 mph - N/A   Overcast
1:16 PM 53.6 °F 48.2 °F 82% 29.67 in 10.0 mi NE 5.8 mph - N/A   Overcast
1:36 PM 53.6 °F 48.2 °F 82% 29.68 in 10.0 mi NE 8.1 mph - N/A   Overcast
1:56 PM 53.6 °F 50.0 °F 88% 29.69 in 10.0 mi NE 5.8 mph - N/A   Overcast
2:16 PM 53.6 °F 50.0 °F 88% 29.69 in 10.0 mi ENE 5.8 mph - N/A   Overcast
2:36 PM 53.6 °F 50.0 °F 88% 29.70 in 10.0 mi NE 3.5 mph - N/A   Overcast
2:56 PM 53.6 °F 50.0 °F 88% 29.71 in 10.0 mi NE 6.9 mph - N/A   Overcast
3:16 PM 53.6 °F 50.0 °F 88% 29.71 in 10.0 mi NE 5.8 mph - N/A   Overcast
3:36 PM 53.6 °F 51.8 °F 94% 29.72 in 10.0 mi NE 8.1 mph - N/A   Overcast
3:56 PM 53.6 °F 51.8 °F 94% 29.72 in 10.0 mi NE 9.2 mph - N/A   Overcast
4:16 PM 53.6 °F 51.8 °F 94% 29.73 in 10.0 mi NNE 6.9 mph - N/A   Overcast
4:36 PM 55.4 °F 51.8 °F 88% 29.73 in 9.0 mi NE 12.7 mph - N/A   Overcast
4:56 PM 53.6 °F 51.8 °F 94% 29.74 in 10.0 mi NE 9.2 mph - N/A   Overcast
5:16 PM 53.6 °F 51.8 °F 94% 29.75 in 10.0 mi NE 5.8 mph - N/A   Overcast
5:36 PM 53.6 °F 51.8 °F 94% 29.76 in 10.0 mi NNE 4.6 mph - N/A   Overcast
5:56 PM 53.6 °F 51.8 °F 94% 29.76 in 10.0 mi North 4.6 mph - N/A   Mostly Cloudy
6:16 PM 53.6 °F 51.8 °F 94% 29.77 in 10.0 mi NE 6.9 mph - N/A   Overcast
6:36 PM 53.6 °F 51.8 °F 94% 29.78 in 10.0 mi NNE 6.9 mph - N/A   Overcast
6:56 PM 53.6 °F 51.8 °F 94% 29.78 in 10.0 mi NNE 5.8 mph - N/A   Overcast
7:16 PM 53.6 °F 51.8 °F 94% 29.79 in 10.0 mi NNE 6.9 mph - N/A   Mostly Cloudy
7:36 PM 53.6 °F 51.8 °F 94% 29.79 in 10.0 mi NE 3.5 mph - N/A   Overcast
7:56 PM 53.6 °F 51.8 °F 94% 29.80 in 10.0 mi NNE 3.5 mph - N/A   Overcast
8:16 PM 53.6 °F 51.8 °F 94% 29.80 in 10.0 mi NNE 3.5 mph - N/A   Overcast
8:36 PM 53.6 °F 51.8 °F 94% 29.80 in 10.0 mi NNE 3.5 mph - N/A   Overcast
8:56 PM 53.6 °F 51.8 °F 94% 29.80 in 10.0 mi NE 3.5 mph - N/A   Mostly Cloudy
9:16 PM 53.6 °F 51.8 °F 94% 29.81 in 10.0 mi Calm Calm - N/A   Overcast
9:36 PM 53.6 °F 51.8 °F 94% 29.81 in 10.0 mi Calm Calm - N/A   Overcast
9:56 PM 53.6 °F 51.8 °F 94% 29.81 in 10.0 mi ENE 4.6 mph - N/A   Overcast
10:16 PM 53.6 °F 51.8 °F 94% 29.82 in 10.0 mi NE 3.5 mph - N/A   Overcast
10:36 PM 53.6 °F 51.8 °F 94% 29.82 in 10.0 mi Calm Calm - N/A   Overcast
10:56 PM 53.6 °F 51.8 °F 94% 29.83 in 10.0 mi Calm Calm - N/A   Overcast
11:16 PM 53.6 °F 51.8 °F 94% 29.84 in 10.0 mi Calm Calm - N/A   Overcast
11:36 PM 53.6 °F 51.8 °F 94% 29.84 in 10.0 mi Calm Calm - N/A   Overcast
11:56 PM 53.6 °F 51.8 °F 94% 29.85 in 10.0 mi Calm Calm - N/A   Overcast